Santiago, Dominican Republic

8:22 PM AST on August 26, 2016 (GMT -0400)
Cibao International

Weather History for MDST - December, 2012

Change the Weather History Date:

Monday, December 24, 2012

  Actual Average Record
Temperature  
Mean Temperature 71 °F -  
Max Temperature 81 °F 84 °F 89 °F (1997)
Min Temperature 61 °F 65 °F 60 °F (2010)
Cooling Degree Days 6    
Growing Degree Days 21 (Base 50)    
Moisture  
Dew Point 68 °F    
Average Humidity 88    
Maximum Humidity 100    
Minimum Humidity 65    
Precipitation  
Precipitation 0.00 in 0.07 in - ()
Sea Level Pressure  
Sea Level Pressure 29.97 in    
Wind  
Wind Speed 4 mph ()    
Max Wind Speed 13 mph    
Max Gust Speed -    
Visibility 5.8 miles    
Events      
Averages and records for this station are not official NWS values.
T = Trace of Precipitation, MM = Missing Value Source: Averaged Metar Reports

Daily Weather History Graph

Daily Weather History Graph

Search for Another Location

Airport or City:

Trip Planner

Search our weather history database for the weather conditions in past years. The results will help you decide how hot, cold, wet, or windy it might be!

Date:

Astronomy

Dec. 24, 2012 Rise Set
Actual Time 7:13 AM AST 6:11 PM AST
Civil Twilight 6:49 AM AST 6:35 PM AST
Nautical Twilight 6:22 AM AST 7:02 PM AST
Astronomical Twilight 5:54 AM AST 7:29 PM AST
Moon 3:27 PM AST (12/24) 3:59 AM AST (12/24)
Length of Visible Light 11h 45m
Length of Day
10h 57m
Waxing Gibbous, 88% of the Moon is Illuminated
Dec 24
Waxing Gibbous
Dec 28
Full
Jan 4
Last Quarter
Jan 11
New
Jan 18
First Quarter

Hourly Weather History & Observations

Time (AST) Temp. Heat Index Dew Point Humidity Pressure Visibility Wind Dir Wind Speed Gust Speed Precip Events Conditions
2:00 AM 66.2 °F - 66.2 °F 100% 29.98 in 6.2 mi Calm Calm - N/A   Scattered Clouds
5:00 AM 64 °F - 64 °F 99% 29.96 in 3 mi Calm Calm - -   Haze
5:00 AM 64.4 °F - 64.4 °F 100% 29.95 in 3.1 mi Calm Calm - N/A   Haze
8:00 AM 64 °F - 63 °F 96% 30.00 in 5 mi NE 4.5 mph - -   Haze
8:00 AM 64.4 °F - 62.6 °F 94% 29.98 in 6.2 mi Calm Calm - N/A   Scattered Clouds
9:00 AM 66.2 °F - 66.2 °F 100% 30.01 in 6.2 mi Calm Calm - N/A   Scattered Clouds
10:00 AM 71.6 °F - 71.6 °F 100% 30.04 in 6.2 mi Calm Calm - N/A   Scattered Clouds
11:00 AM 75.2 °F - 71.6 °F 89% 30.04 in 6.2 mi ESE 4.6 mph - N/A   Scattered Clouds
12:00 PM 77.0 °F - 71.6 °F 83% 30.01 in 6.2 mi East 11.5 mph - N/A   Scattered Clouds
1:00 PM 78.8 °F - 69.8 °F 74% 29.98 in 6.2 mi SE 11.5 mph - N/A   Scattered Clouds
2:00 PM 78.8 °F - 69.8 °F 74% 29.95 in 6.2 mi ESE 11.5 mph - N/A   Scattered Clouds
3:00 PM 80.6 °F 83.2 °F 68.0 °F 65% 29.92 in 6.2 mi SE 12.7 mph - N/A   Scattered Clouds
4:00 PM 80.6 °F 83.9 °F 69.8 °F 70% 29.92 in 6.2 mi East 12.7 mph - N/A   Partly Cloudy
5:00 PM 80.6 °F 83.2 °F 68.0 °F 65% 29.89 in 6.2 mi NNE 11.5 mph - N/A   Partly Cloudy
6:00 PM 77.0 °F - 69.8 °F 78% 29.92 in 6.2 mi East 9.2 mph - N/A   Partly Cloudy
7:00 PM 75.2 °F - 69.8 °F 83% 29.92 in 6.2 mi ESE 8.1 mph - N/A   Partly Cloudy
8:00 PM 72 °F - 69 °F 88% 29.95 in 6 mi ESE 4.5 mph - -   Haze
8:00 PM 69.8 °F - 69.8 °F 100% 29.95 in 6.2 mi ESE 4.6 mph - N/A   Partly Cloudy
9:00 PM 69.8 °F - 69.8 °F 100% 29.95 in 6.2 mi ESE 4.6 mph - N/A   Partly Cloudy
10:00 PM 71.6 °F - 71.6 °F 100% 29.98 in 6.2 mi SE 4.6 mph - N/A   Partly Cloudy
11:00 PM 68.0 °F - 68.0 °F 100% 29.98 in 6.2 mi Calm Calm - N/A   Partly Cloudy